Regional Weather Roundup
Issued by NWS

Home | Current Version | Previous Version | Text Only | Print | Product List | Glossary Off
Versions: 1 2 3 4 5 6 7 8 9 10 11 12 13 14 15 16 17 18 19 20 21 22 23 24 25 26 27 28 29 30 31 32 33 34 35 36 37 38 39 40 41 42 43 44 45 46 47 48 49 50

000
ASUS45 KBOU 260907
RWRCO

WEATHER ROUNDUP FOR COLORADO
NATIONAL WEATHER SERVICE DENVER/BOULDER CO
200 AM MST THU FEB 26 2015

NOTE: "FAIR" INDICATES FEW OR NO CLOUDS BELOW 12000 FEET WITH NO
SIGNIFICANT WEATHER AND/OR OBSTRUCTIONS TO VISIBILITY.

COZ001>005-013-030-031-261000-
...NORTHWEST COLORADO...

CITY           SKY/WX    TMP DP  RH WIND       PRES   REMARKS
CRAIG          MOCLDY    15  11  83 CALM      30.08S
HAYDEN         MOCLDY    16  12  86 NW6       30.05S WCI   7
MEEKER         CLEAR     18  13  80 N3        30.08R
MOUNT WERNER   NOT AVBL
STEAMBOAT SPGS CLOUDY    17  10  73 CALM      30.03S
WALDEN         CLOUDY    10   7  85 N5        30.00S WCI   2
$$

COZ006>008-011-261000-
...WEST CENTRAL VALLEYS...

CITY           SKY/WX    TMP DP  RH WIND       PRES   REMARKS
GRAND JUNCTION CLEAR     27  17  66 NE10      30.06R WCI  17
MONTROSE       CLEAR     20  17  88 SE12      30.07S WCI   8
EAGLE          CLOUDY    23  19  86 W3        30.06S
RIFLE          CLEAR     24  16  71 SW5       30.07R WCI  18
DELTA          PTCLDY    32  29  89 N6        30.06S WCI  26
NUCLA          PTCLDY    30  19  64 NE7       30.07S WCI  23
$$

COZ017>023-064>068-261000-
...SOUTHWEST COLORADO...

CITY           SKY/WX    TMP DP  RH WIND       PRES   REMARKS
DURANGO        CLEAR     23  20  88 N3        29.96R
CORTEZ         CLEAR     24  22  91 E5        30.01R WCI  18
PAGOSA SPRINGS PTCLDY    19  18  98 CALM      29.96S
TELLURIDE      PTCLDY    19  14  81 W3        30.00S
WOLF CREEK PAS FLURRIES   9   7  92 NE7       29.95S WCI  -3
$$

COZ009-010-012-014-032>034-037-058>063-261000-
...CENTRAL COLORADO...

CITY           SKY/WX    TMP DP  RH WIND       PRES   REMARKS
ASPEN          MOCLDY    17  14  88 CALM      29.98S
BUENA VISTA    LGT SNOW  20  18  91 CALM      29.99F VSB 3/4
COPPER MTN     MOCLDY     7   0  72 W18       29.88S WCI -12
BERTHOUD PASS  HAZE      -2  -8  78 NW10      29.85F VSB<1/4 WCI -19
COTTONWOOD PAS LGT SNOW  18  14  86 CALM      29.94F VSB 3/4
GUNNISON       PTCLDY    18  14  86 CALM      30.00S
KREMMLING      CLOUDY    12   9  85 E3        30.03R
LEADVILLE      LGT SNOW   8   3  80 NE8       29.92S WCI  -4
MONARCH PASS     N/A      5   1  85 MISG      29.99S
SALIDA         CLOUDY    22  18  85 E12       30.07F WCI  11
SUNLIGHT       PTCLDY   N/A N/A N/A CALM        N/A
WILKERSON PASS LGT SNOW N/A N/A N/A SW3       29.91F VSB 3/4
$$

COZ069>075-261000-
...SAN LUIS VALLEY/SANGRE DE CRISTO MOUNTAINS...

CITY           SKY/WX    TMP DP  RH WIND       PRES   REMARKS
ALAMOSA        PTCLDY    20  13  74 E7        29.96F WCI  11
LA VETA PASS   SNOW      10   9  92 MISG      29.93F VSB 1/2
SAGUACHE       LGT SNOW  23  21  93 S3        29.98R
$$

COZ035-036-038>040-261000-
...NORTHERN COLORADO FRONT RANGE...

CITY           SKY/WX    TMP DP  RH WIND       PRES   REMARKS
DENVER INTL AP FLURRIES  15   9  76 NE8       30.17F WCI   4
DMNS CITY PARK   N/A     15  14  93 SE3       30.18F
AURORA         FLURRIES  13  10  89 E6        30.17S WCI   4
FRONT RANGE AP NOT AVBL
ERIE MUNI ARPT LGT SNOW  17  15  91 SE3       30.20S
BOULDER MUN AP LGT SNOW  19  18  93 E3        30.18S
CENTENNIAL     LGT SNOW  11   8  88 E3        30.15F FOG
BROOMFIELD     LGT SNOW  18  14  86 SE8       30.16F WCI   7
FORT COLLINS   CLOUDY    19   9  63 CALM      30.20R
LONGMONT       LGT SNOW  20  17  85 SE5       30.21S WCI  14
$$

COZ041-046-047-076>085-087-088-261000-
...PIKES PEAK/PALMER DIVIDE AND SOUTHERN FOOTHILLS...

CITY           SKY/WX    TMP DP  RH WIND       PRES   REMARKS
COLO. SPRINGS  MOCLDY    17   8  67 N15       30.11S WCI   2
A. F. ACADEMY  MOCLDY    14   7  75 N14       30.09S WCI  -1
ELLICOTT       NOT AVBL
FALCON         CLOUDY    13   8  81 N15G22    30.07F WCI  -3
FORT CARSON    MOCLDY    19  10  68 N20G25    30.10S WCI   3
LIMON          LGT SNOW  15  12  88 NE12      30.15R FOG     WCI   2
MONUMENT HILL    N/A      9   7  92 N9        30.07F WCI  -5
TRINIDAD       LGT SNOW  23  21  92 S7        30.09S FOG     WCI  15
$$

COZ042>045-048>051-090-091-261000-
...NORTHEAST COLORADO...

CITY           SKY/WX    TMP DP  RH WIND       PRES   REMARKS
GREELEY ARPT   MOCLDY    19   7  58 E8        30.20S WCI   9
AKRON          FLURRIES  12   9  87 E6        30.20R WCI   3
BURLINGTON     CLOUDY    16   9  74 N15       30.21R WCI   1
WRAY           CLOUDY    17   8  66 N10G17    30.27R WCI   5
STERLING       CLOUDY    18  10  73 NE8       30.24S WCI   7
HOLYOKE        NOT AVBL
FORT MORGAN    CLOUDY    16  10  77 N6        30.22R WCI   7
$$

COZ086-089-092>099-261000-
...SOUTHEAST COLORADO...

CITY           SKY/WX    TMP DP  RH WIND       PRES   REMARKS
PUEBLO         LGT SNOW  23  18  81 N22       30.14S WCI   8
LA JUNTA       SNOW      27  23  85 E14       30.16R VSB 1/2 WCI  16
LAMAR          LGT SNOW  23  19  85 NE17      30.20R FOG     WCI   9
SPRINGFIELD      N/A     22  19  89 NE18      30.14R WCI   7
$$


USA.gov is the U.S. government's official web portal to all federal, state and local government web resources and services.